contact:dominique.lefevre@mio.osupytheas.fr, maurice.libes@osupytheas.fr
Project:EMSO Ligure-ouest http://www.emso-fr.org/EMSO-France
Sensor Aquadopp, line 04 Serial AQD8517 
DOI : "https://doi.org/10.17882/74513; https://doi.org/10.17882/83244" 
Title:EMSO Ligure Ouest : Data ligne ALBATROSS capteur AQUADOPP - deploiement 2021
Id,Date,Profondeur,Latitude,Longitude,X_East,Y_North,Z_Up,Amplitude_X,Amplitude_Y,Amplitude_Z,Batterie,SoundSpeed,Heading,Pitch,Roll,Pressure,Temperature,Speed,Direction
, , m, degrees North, degrees East, m.s-1, m.s-1,m.s-1, 1, 1, 1, Volt, m.s-1, degree, degree, degree, dbar, degree_C, m.s-1, degree
04,2021-11-19T22:00:00,1000.0,42.79,6.0312,-0.059,0.039,-0.001,56.0,58.0,54.0,12.7,1504.6,327.8,-0.9,-0.6,967.721,13.25,0.07,303.5
04,2021-11-19T22:30:00,1000.0,42.79,6.0312,-0.075,0.039,0.0,56.0,59.0,55.0,12.7,1504.6,322.5,-0.3,-0.7,967.745,13.26,0.084,297.5
04,2021-11-19T23:00:00,1000.0,42.79,6.0312,-0.059,0.014,0.014,55.0,57.0,54.0,12.7,1504.6,320.1,-0.9,-0.5,967.696,13.27,0.06,283.3
04,2021-11-19T23:30:00,1000.0,42.79,6.0312,-0.054,0.017,0.006,56.0,58.0,56.0,12.7,1504.6,314.7,-0.5,-0.6,967.695,13.27,0.056,287.5
04,2021-11-20T00:00:00,1000.0,42.79,6.0312,-0.057,0.042,0.023,56.0,58.0,54.0,12.7,1504.6,328.6,-1.0,-0.4,967.675,13.27,0.07,306.4
04,2021-11-20T00:30:00,1000.0,42.79,6.0312,-0.065,0.013,0.013,57.0,58.0,54.0,12.7,1504.6,311.8,-1.0,-0.4,967.642,13.27,0.066,281.3
04,2021-11-20T01:00:00,1000.0,42.79,6.0312,-0.074,0.032,0.002,56.0,60.0,56.0,12.7,1504.6,319.8,-0.8,-0.8,967.648,13.27,0.08,293.4
04,2021-11-20T01:30:00,1000.0,42.79,6.0312,-0.067,0.017,0.006,56.0,58.0,57.0,12.7,1504.6,317.3,-1.0,-0.4,967.643,13.26,0.069,284.2
04,2021-11-20T02:00:00,1000.0,42.79,6.0312,-0.067,0.039,0.006,55.0,57.0,54.0,12.7,1504.6,327.8,-0.8,-0.7,967.616,13.26,0.077,300.2
04,2021-11-20T02:30:00,1000.0,42.79,6.0312,-0.042,0.03,-0.003,55.0,57.0,56.0,12.7,1504.6,330.7,-1.0,-0.5,967.641,13.26,0.051,305.5
04,2021-11-20T03:00:00,1000.0,42.79,6.0312,-0.044,0.028,-0.004,54.0,57.0,54.0,12.7,1504.6,336.0,-0.8,-0.7,967.622,13.25,0.052,302.5
04,2021-11-20T03:30:00,1000.0,42.79,6.0312,-0.037,0.031,0.005,54.0,56.0,56.0,12.7,1504.6,331.3,-0.8,-0.6,967.667,13.25,0.048,310.0
04,2021-11-20T04:00:00,1000.0,42.79,6.0312,-0.047,0.046,-0.006,53.0,57.0,53.0,12.7,1504.6,330.8,-0.3,-0.7,967.651,13.25,0.065,314.4
04,2021-11-20T04:30:00,1000.0,42.79,6.0312,-0.041,0.024,-0.005,53.0,56.0,53.0,12.7,1504.6,327.8,-0.7,-0.4,967.708,13.26,0.047,300.3
04,2021-11-20T05:00:00,1000.0,42.79,6.0312,-0.041,0.023,0.002,53.0,55.0,52.0,12.7,1504.6,330.5,-0.7,-0.5,967.735,13.27,0.047,299.3
04,2021-11-20T05:30:00,1000.0,42.79,6.0312,-0.045,0.018,0.001,53.0,56.0,51.0,12.7,1504.6,331.2,-0.7,-0.6,967.786,13.26,0.048,291.8
04,2021-11-20T06:00:00,1000.0,42.79,6.0312,-0.061,0.022,0.007,54.0,56.0,53.0,12.7,1504.6,333.6,-0.7,-0.5,967.731,13.26,0.064,289.8
04,2021-11-20T06:30:00,1000.0,42.79,6.0312,-0.034,0.029,0.008,53.0,56.0,53.0,12.7,1504.6,326.0,-0.8,-0.4,967.781,13.26,0.044,310.5
04,2021-11-20T07:00:00,1000.0,42.79,6.0312,-0.033,0.015,0.007,54.0,57.0,53.0,12.7,1504.6,331.6,-0.8,-0.5,967.818,13.26,0.036,294.4
04,2021-11-20T07:30:00,1000.0,42.79,6.0312,-0.049,0.024,-0.005,53.0,55.0,52.0,12.7,1504.6,328.0,-0.7,-0.4,967.832,13.26,0.054,296.1
04,2021-11-20T08:00:00,1000.0,42.79,6.0312,-0.038,0.017,-0.005,54.0,55.0,52.0,12.7,1504.6,331.5,-0.8,-0.5,967.784,13.25,0.041,294.1
04,2021-11-20T08:30:00,1000.0,42.79,6.0312,-0.036,0.015,0.001,52.0,56.0,54.0,12.7,1504.6,323.1,-0.6,-0.5,967.791,13.26,0.039,292.6
04,2021-11-20T09:00:00,1000.0,42.79,6.0312,-0.052,0.001,0.008,55.0,57.0,53.0,12.7,1504.6,326.5,-0.6,-0.5,967.785,13.26,0.052,271.1
04,2021-11-20T09:30:00,1000.0,42.79,6.0312,-0.046,0.011,0.012,53.0,56.0,53.0,12.7,1504.6,325.0,-0.8,-0.4,967.773,13.26,0.047,283.4
04,2021-11-20T10:00:00,1000.0,42.79,6.0312,-0.053,0.024,0.012,53.0,57.0,51.0,12.7,1504.6,328.7,-0.6,-0.5,967.78,13.26,0.058,294.4
04,2021-11-20T10:30:00,1000.0,42.79,6.0312,-0.052,0.022,0.008,54.0,56.0,52.0,12.7,1504.6,327.0,-0.9,-0.4,967.76,13.26,0.056,292.9
04,2021-11-20T11:00:00,1000.0,42.79,6.0312,-0.057,0.014,0.017,54.0,55.0,53.0,12.7,1504.6,328.5,-0.6,-0.6,967.755,13.25,0.058,283.8
04,2021-11-20T11:30:00,1000.0,42.79,6.0312,-0.054,0.024,0.013,54.0,55.0,53.0,12.7,1504.6,328.6,-0.4,-0.5,967.698,13.26,0.059,294.0
04,2021-11-20T12:00:00,1000.0,42.79,6.0312,-0.057,0.013,0.008,52.0,56.0,52.0,12.7,1504.6,322.7,-0.5,-0.5,967.69,13.26,0.058,282.8
04,2021-11-20T12:30:00,1000.0,42.79,6.0312,-0.054,0.03,-0.002,54.0,57.0,52.0,12.7,1504.6,331.6,-0.5,-0.6,967.66,13.26,0.061,299.1
04,2021-11-20T13:00:00,1000.0,42.79,6.0312,-0.054,0.023,0.01,55.0,56.0,53.0,12.7,1504.6,329.1,-0.4,-0.5,967.631,13.26,0.058,293.1
04,2021-11-20T13:30:00,1000.0,42.79,6.0312,-0.064,0.024,0.003,54.0,56.0,54.0,12.7,1504.6,331.8,-0.9,-0.5,967.624,13.27,0.068,290.6
04,2021-11-20T14:00:00,1000.0,42.79,6.0312,-0.054,0.027,0.017,54.0,56.0,53.0,12.7,1504.6,332.1,-0.6,-0.6,967.598,13.26,0.06,296.6
04,2021-11-20T14:30:00,1000.0,42.79,6.0312,-0.061,0.022,0.001,56.0,56.0,54.0,12.7,1504.6,324.6,-0.8,-0.4,967.667,13.26,0.064,289.8
04,2021-11-20T15:00:00,1000.0,42.79,6.0312,-0.052,0.017,-0.004,52.0,57.0,53.0,12.7,1504.6,327.5,-0.8,-0.5,967.623,13.26,0.054,288.1
04,2021-11-20T15:30:00,1000.0,42.79,6.0312,-0.051,0.026,0.005,55.0,57.0,53.0,12.7,1504.6,330.8,-0.6,-0.6,967.581,13.26,0.057,297.0
04,2021-11-20T16:00:00,1000.0,42.79,6.0312,-0.053,0.031,0.004,54.0,56.0,53.0,12.7,1504.6,328.0,-0.8,-0.5,967.619,13.26,0.061,300.3
04,2021-11-20T16:30:00,1000.0,42.79,6.0312,-0.047,0.035,-0.001,54.0,55.0,53.0,12.7,1504.6,334.1,-0.7,-0.5,967.619,13.26,0.058,306.7
04,2021-11-20T17:00:00,1000.0,42.79,6.0312,-0.055,0.027,0.01,54.0,57.0,52.0,12.7,1504.6,327.6,-0.6,-0.5,967.683,13.26,0.061,296.1
04,2021-11-20T17:30:00,1000.0,42.79,6.0312,-0.041,0.039,0.008,53.0,56.0,53.0,12.7,1504.6,333.8,-0.9,-0.4,967.688,13.26,0.056,313.6
04,2021-11-20T18:00:00,1000.0,42.79,6.0312,-0.053,0.047,0.001,57.0,56.0,55.0,12.7,1504.6,337.6,-0.8,-0.5,967.701,13.26,0.07,311.6
04,2021-11-20T18:30:00,1000.0,42.79,6.0312,-0.048,0.04,0.0,54.0,57.0,55.0,12.7,1504.6,341.8,-0.6,-0.6,967.726,13.26,0.062,309.8
04,2021-11-20T19:00:00,1000.0,42.79,6.0312,-0.046,0.052,0.007,54.0,57.0,54.0,12.7,1504.6,341.8,-0.8,-0.5,967.697,13.25,0.069,318.5
04,2021-11-20T19:30:00,1000.0,42.79,6.0312,-0.056,0.035,-0.003,56.0,57.0,54.0,12.7,1504.6,330.9,-0.8,-0.5,967.726,13.26,0.066,302.0
04,2021-11-20T20:00:00,1000.0,42.79,6.0312,-0.035,0.046,0.016,56.0,58.0,55.0,12.7,1504.6,346.3,-0.6,-0.6,967.737,13.26,0.057,322.7
04,2021-11-20T20:30:00,1000.0,42.79,6.0312,-0.044,0.044,0.01,56.0,57.0,55.0,12.7,1504.6,334.7,-0.8,-0.4,967.687,13.26,0.062,315.0
04,2021-11-20T21:00:00,1000.0,42.79,6.0312,-0.022,0.036,0.009,55.0,58.0,56.0,12.7,1504.6,344.4,-0.5,-0.6,967.691,13.26,0.042,328.6
